EW3443 Weather Reports


time (UTC)temp
F
wind
direction
speed
knots
gust
knots
rain 1hr
in
rain 24hr
in
rain mn
in
humidity
%
barometer
mb
20260507093005 68 263 1.7 2.6 0.00 0.00 0.00 32 1019.4
20260507090005 68 269 2.6 4.3 0.00 0.00 0.00 34 1019.4
20260507083005 68 194 3.5 6.1 0.00 0.00 0.00 34 1019.4
20260507070010 70 265 2.6 4.3 0.00 0.00 0.00 30 1019.0
20260507063004 72 258 4.3 7.8 0.00 0.00 0.00 29 1019.1
20260507060005 73 256 3.5 6.1 0.00 0.00 0.00 29 1019.0
20260507033004 74 225 0.9 2.6 0.00 0.00 0.00 25 1018.1
20260507023005 79 108 0.9 3.5 0.00 0.00 0.00 21 1017.5
20260507020004 82 72 2.6 5.2 0.00 0.00 0.00 20 1017.4
20260507000005 85 39 4.3 7.0 0.00 0.00 0.00 20 1017.1
20260506230005 85 8 0.9 3.5 0.00 0.00 0.00 20 1017.5
20260506220004 84 27 3.5 10.4 0.00 0.00 0.00 21 1018.1
20260506200004 79 82 2.6 11.3 0.00 0.00 0.00 24 1019.3
20260506190005 79 242 0.9 3.5 0.00 0.00 0.00 24 1019.6
20260506180006 75 339 1.7 5.2 0.00 0.00 0.00 27 1020.0
20260506173004 74 339 2.6 7.0 0.00 0.00 0.00 29 1020.0
20260506170004 72 309 1.7 5.2 0.00 0.00 0.00 31 1019.8
20260506160004 67 285 0.9 4.3 0.00 0.00 0.00 36 1019.7
20260506143005 60 276 2.6 5.2 0.00 0.00 0.00 45 1019.4
20260506130005 54 299 0.9 2.6 0.00 0.00 0.00 52 1018.4
20260506123005 54 279 2.6 6.1 0.00 0.00 0.00 53 1018.0
20260506120005 53 280 1.7 3.5 0.00 0.00 0.00 53 1017.9
20260506110005 53 255 1.7 3.5 0.00 0.00 0.00 53 1017.6
20260506103004 54 268 1.7 4.3 0.00 0.00 0.00 52 1017.4